Temperature
18 18 18 18 18 18 17 17 17 16 16 16 15 15 15 14 14 14 13 13 13 12 12 12 12 12 12 12 12 12 12 12 13 13 13 13 12 12 12 12 12 12 12
19 19 19 19 18 18 18 18 17 17 17 16 16 16 15 15 15 14 14 14 13 13 13 13 13 12 12 12 12 12 12 12 12 12 13 13 12 11 11 11 12 12 12
19 19 19 19 19 19 18 18 18 17 17 17 17 16 16 16 15 15 15 15 14 14 14 13 13 13 12 12 12 12 12 12 12 12 12 12 12 12 11 11 11 11 12
19 19 19 19 19 19 19 18 18 18 18 17 17 17 17 16 16 16 16 15 15 15 15 14 14 13 13 13 12 12 12 12 12 12 12 12 12 12 11 11 12 12 12
19 19 19 19 19 19 19 19 18 18 18 18 17 17 17 16 16 16 16 16 16 16 15 15 15 15 14 14 13 13 12 12 12 12 13 13 13 12 12 12 12 12 12
19 19 19 19 19 19 18 18 18 18 18 17 17 17 17 17 16 17 16 16 15 15 15 15 15 15 15 15 15 14 13 12 12 12 13 13 12 12 12 11 12 12 12
18 18 17 17 17 18 18 17 18 18 18 18 17 17 17 17 17 17 16 16 15 15 15 15 15 15 14 15 15 15 14 14 13 12 12 12 12 12 11 11 11 11 11
17 17 16 16 16 17 17 17 17 17 17 17 17 17 17 17 16 16 16 15 15 15 14 14 14 14 14 14 14 13 14 14 14 13 13 13 12 11 11 10 10 10 10
16 16 16 16 16 16 16 16 16 16 16 16 16 16 16 16 15 15 15 14 14 14 14 14 14 14 14 14 13 13 13 13 13 13 13 13 12 12 11 10 10 10 11
15 15 15 15 15 15 15 15 15 15 15 15 14 14 14 14 14 14 14 13 13 13 13 13 13 13 13 13 13 13 12 13 12 12 12 12 12 12 11 11 10 10 11
14 14 14 14 14 14 14 14 14 14 13 13 13 13 13 13 13 13 12 12 12 12 12 13 13 13 13 13 12 12 12 12 12 11 11 11 11 11 11 11 10 10 11
13 13 12 12 12 12 12 12 12 12 12 12 12 12 12 11 11 11 11 11 11 11 11 11 12 12 11 11 11 12 12 11 11 11 11 11 11 11 11 11 10 10 10
11 11 11 11 11 11 11 11 11 11 11 11 11 11 11 11 11 10 10 10 10 10 10 10 10 10 11 10 11 11 11 10 10 10 11 11 12 12 11 11 10 10 9
10 10 10 10 10 10 10 10 10 10 10 10 10 10 10 10 10 9 9 9 9 9 9 9 9 9 10 10 10 10 10 10 10 10 10 11 11 11 11 11 10 10 10
10 10 10 10 10 9 9 9 9 9 9 8 8 8 8 8 8 8 8 7 7 8 8 8 8 9 9 10 10 10 10 10 9 9 10 10 10 11 11 10 10 10 10
10 10 10 10 10 9 9 9 9 8 8 8 8 7 7 7 7 7 7 7 7 7 7 7 8 8 9 9 10 10 10 9 9 9 9 10 10 10 10 10 10 10 10
9 9 9 9 9 9 9 9 9 9 8 8 7 7 6 6 6 6 6 6 7 7 7 7 7 8 8 9 9 9 9 9 9 9 9 9 9 9 9 9 10 10 9
8 9 8 9 9 9 8 8 8 8 8 8 7 6 6 5 5 5 5 5 6 6 6 7 7 7 7 8 8 9 9 9 9 9 8 8 9 9 9 9 9 9 9
8 8 8 8 8 8 8 8 7 7 7 6 6 6 5 5 4 4 4 5 5 5 6 6 6 6 6 7 7 7 8 8 8 8 8 8 8 8 8 8 9 9 8
8 8 7 7 7 7 7 7 6 6 6 5 5 5 4 4 4 4 4 4 4 4 4 5 5 5 5 6 6 6 7 7 7 7 8 8 8 8 8 8 8 8 8
8 7 7 7 7 6 6 5 5 5 4 4 4 3 3 3 3 3 3 3 3 3 3 4 4 4 5 5 5 6 6 6 6 7 7 7 7 7 7 7 8 8 8
6 6 6 6 5 5 4 4 4 3 3 3 3 2 2 2 2 2 2 2 2 3 3 3 3 4 4 4 4 5 5 6 6 6 6 6 7 7 7 7 7 7 7
5 5 5 4 4 3 3 3 2 2 2 1 1 1 2 2 2 2 2 2 2 2 2 2 3 3 3 3 4 4 5 5 5 6 6 6 6 6 7 7 7 7 7
4 4 3 3 2 2 2 1 1 1 1 1 1 1 1 1 1 1 1 1 1 2 2 2 2 3 3 3 3 4 4 5 5 5 5 6 6 6 6 6 7 7 7
3 2 2 1 1 1 1 1 0 0 0 0 0 0 0 0 0 0 0 1 1 1 1 2 2 2 3 3 3 3 4 4 5 5 5 5 6 6 6 6 6 6 6
2 1 1 1 0 0 0 -0 -0 -0 -0 -0 -0 -0 -0 -0 -0 -0 0 0 0 1 1 1 2 2 2 3 3 4 4 4 5 5 5 5 5 5 5 5 6 6 6
Wind_Speed
15 14 13 12 12 12 11 11 10 10 10 10 10 10 10 10 10 10 10 8 9 9 8 8 9 9 7 7 7 7 8 8 9 9 8 7 7 9 9 10 11 12 12
14 14 13 13 12 12 12 12 11 11 11 11 11 11 11 11 11 12 12 11 11 11 10 10 10 9 10 9 8 9 9 9 10 12 10 9 9 9 10 10 12 12 13
14 14 13 13 13 13 13 12 12 12 12 12 12 12 12 12 12 13 13 12 12 12 12 12 12 11 12 10 10 11 10 10 10 11 11 9 9 9 10 11 12 11 14
13 13 13 13 13 13 12 12 12 12 12 12 13 13 13 13 13 14 14 14 14 14 13 13 13 13 13 13 12 12 11 11 11 12 12 11 10 10 9 10 11 10 11
12 12 12 11 11 11 11 11 11 12 13 13 13 13 14 13 14 15 14 15 15 15 15 15 15 15 15 13 12 12 12 12 12 12 12 11 11 9 10 10 11 10 10
10 10 9 9 9 10 10 10 11 11 12 12 13 14 15 14 13 15 15 15 14 15 15 16 16 16 17 18 17 15 14 14 14 13 13 13 12 11 10 11 11 11 12
5 5 5 6 7 7 8 9 10 10 11 12 13 14 15 16 14 15 17 16 16 16 16 16 15 15 17 17 19 22 21 21 19 17 17 16 14 12 12 13 13 13 13
4 2 1 1 2 3 4 5 7 8 9 10 12 13 14 15 13 15 15 17 18 19 18 18 18 18 17 17 17 18 19 20 20 20 20 19 17 14 13 14 14 14 14
7 6 4 2 1 1 2 3 4 5 7 8 9 11 12 13 10 11 13 13 15 19 20 20 20 20 19 17 18 19 19 18 19 21 20 19 17 14 12 12 14 14 15
9 8 6 5 4 4 3 3 3 4 6 7 8 9 10 11 7 7 10 11 15 16 16 18 19 21 19 17 19 20 21 20 18 17 18 20 21 21 19 18 17 16 15
9 9 8 7 6 5 5 4 4 4 5 6 7 8 8 9 9 7 8 9 13 14 15 15 15 16 20 19 20 20 21 18 17 17 16 17 17 16 17 19 19 18 17
8 8 8 7 6 6 5 5 5 5 5 6 6 7 7 6 6 5 6 11 12 13 14 14 14 11 11 15 17 19 19 16 16 16 17 17 16 16 16 17 18 19 18
7 7 6 6 6 6 6 6 5 5 6 7 8 8 8 8 7 6 8 10 12 12 13 16 16 16 14 14 18 20 17 15 16 18 18 18 17 16 15 13 16 17 18
5 5 4 4 5 6 6 6 7 7 8 8 9 10 10 10 9 9 10 11 11 13 13 14 15 18 18 17 16 15 16 17 17 18 18 17 16 15 15 15 15 15 15
4 4 5 5 5 6 6 6 6 6 6 8 10 11 11 12 11 14 13 14 14 15 15 15 16 16 15 15 15 15 15 16 17 18 17 16 16 15 14 14 14 15 16
5 5 6 6 6 7 8 8 4 7 6 10 11 11 11 10 13 15 16 17 18 17 14 15 16 16 17 16 16 16 15 15 15 16 16 16 16 15 14 14 14 15 16
6 7 7 8 8 9 9 10 11 9 8 12 12 12 12 13 15 16 17 18 19 16 13 14 15 16 16 16 16 16 16 15 14 14 14 14 14 15 14 14 14 15 15
7 6 7 8 9 10 10 11 11 12 13 11 8 6 8 12 14 17 17 16 15 11 12 13 14 14 14 15 15 15 15 14 13 13 14 14 14 14 14 14 14 15 15
8 8 8 10 10 10 10 11 11 13 12 12 12 12 8 11 14 14 13 12 13 14 13 13 14 14 14 14 13 13 14 14 13 12 13 13 13 14 14 14 14 14 15
7 3 6 10 11 11 10 11 11 11 12 12 12 12 12 14 14 13 12 12 12 13 13 13 13 14 14 13 12 11 12 12 12 11 11 11 12 12 13 15 14 13 13
9 7 6 9 10 10 10 11 11 11 11 12 12 11 12 13 13 13 13 12 12 13 13 13 13 13 13 12 11 11 12 11 10 10 10 10 11 12 12 12 13 14 13
8 9 9 9 9 9 10 11 11 11 12 13 12 12 12 12 12 12 12 12 12 12 12 12 12 12 11 11 10 10 10 9 9 8 8 9 9 10 11 11 12 12 13
8 9 9 9 9 9 10 10 10 11 11 12 12 12 12 12 12 12 12 12 12 12 12 12 12 11 10 9 9 8 8 8 8 7 7 8 8 9 9 11 13 13 13
8 9 9 9 9 9 10 10 10 11 12 12 12 12 12 12 12 13 13 12 12 12 12 11 12 14 16 12 9 7 8 8 9 8 10 9 8 8 8 10 11 12 13
7 8 8 8 8 9 9 10 10 11 11 11 12 12 12 12 12 12 12 12 14 13 14 13 10 11 14 15 13 11 11 11 10 10 9 8 9 9 9 10 10 11 11
7 8 8 8 8 9 9 10 10 11 11 11 11 11 12 12 12 12 12 12 13 13 13 12 13 14 15 12 13 13 11 11 11 10 9 8 9 8 8 8 11 10 12
Wind_Direction
211 211 216 213 212 211 214 214 212 212 206 209 211 213 217 218 218 221 236 233 233 239 239 240 241 257 260 258 251 254 256 259 268 274 273 263 256 268 276 269 266 264 257
211 212 214 215 213 213 214 213 210 210 210 211 214 217 221 222 221 223 230 233 233 237 239 241 243 241 240 253 258 255 255 258 263 272 275 271 255 253 260 265 266 263 266
210 212 213 214 213 215 217 212 209 209 213 216 215 220 224 226 226 227 230 234 236 237 239 239 240 242 242 244 246 252 253 250 251 263 267 267 266 259 260 257 258 259 265
212 213 215 217 216 215 215 212 211 211 214 218 220 224 227 229 230 230 230 233 236 238 239 239 239 238 238 241 242 245 251 256 254 256 263 263 259 254 254 262 261 247 249
214 216 219 219 218 218 216 215 214 215 219 221 225 228 231 232 233 231 232 233 235 238 238 238 239 237 238 238 243 241 240 245 251 254 258 260 258 255 254 256 261 264 256
216 221 219 217 214 216 218 218 219 221 226 226 228 232 234 237 227 221 231 242 240 240 242 240 240 233 231 228 239 247 251 248 250 256 259 259 260 259 258 261 266 264 264
201 212 215 219 219 221 224 224 226 228 229 231 234 236 240 242 231 217 219 238 247 247 245 244 245 241 228 232 228 229 238 243 246 250 258 261 261 254 256 256 254 260 267
116 116 136 221 233 235 236 240 243 244 243 243 244 244 247 248 232 223 220 235 248 250 248 246 246 249 241 235 237 234 233 233 230 234 244 252 255 259 256 256 265 264 261
78 69 59 52 37 328 291 285 275 268 262 260 258 257 257 260 245 228 224 249 249 252 252 250 247 247 242 227 237 243 244 243 236 229 232 241 249 252 252 254 254 254 257
66 64 59 55 52 41 22 349 321 293 280 278 275 273 272 274 270 238 226 257 261 261 257 254 248 244 246 222 233 241 245 245 247 238 227 236 243 242 233 238 246 250 255
59 59 53 47 48 44 31 14 346 320 310 301 297 291 285 282 281 255 232 262 273 274 271 266 262 239 231 227 228 240 246 251 251 247 243 237 234 234 232 226 230 239 247
60 56 49 36 26 31 24 10 354 335 315 305 303 301 296 293 288 288 253 251 270 281 279 277 280 289 254 238 234 242 246 250 253 252 248 245 241 237 233 229 225 229 239
56 51 43 35 27 17 4 357 345 339 328 326 322 317 314 316 303 258 254 258 258 269 278 280 285 287 278 261 241 235 237 242 244 245 245 246 245 243 241 234 232 231 236
41 31 22 12 4 8 344 344 342 339 337 333 325 319 316 311 310 325 324 311 291 279 285 288 275 262 255 257 259 242 238 240 239 241 243 246 246 244 238 237 234 230 232
16 359 348 347 352 333 331 329 323 327 335 316 318 317 315 312 332 343 322 310 308 306 308 294 285 278 269 260 254 249 243 238 237 241 244 246 245 243 240 236 235 236 238
344 342 336 334 337 326 323 318 270 264 245 239 249 273 300 304 313 309 302 293 286 285 289 282 280 278 274 270 264 258 250 243 240 240 240 241 242 242 240 237 234 235 240
331 330 327 327 325 320 318 316 315 300 250 240 241 244 258 284 291 291 291 291 285 278 275 276 278 279 278 275 270 264 260 254 244 242 242 242 241 242 241 240 239 238 239
316 320 311 315 316 314 313 313 311 312 313 312 294 261 265 274 282 284 285 292 293 284 285 287 287 286 284 282 278 273 267 260 249 243 241 241 240 241 241 241 241 241 242
316 321 327 319 311 310 311 310 310 311 310 311 313 311 313 306 292 285 290 300 307 307 304 300 297 295 293 289 284 280 274 267 257 247 243 239 238 238 239 240 241 241 243
306 310 308 311 310 314 316 314 312 312 311 312 312 316 326 323 318 318 317 316 314 311 308 306 306 302 298 294 288 281 276 269 264 255 248 243 240 238 239 241 242 241 241
319 319 305 305 319 322 320 317 316 315 316 316 315 326 334 317 313 316 317 317 318 316 313 312 309 306 302 297 292 287 280 273 268 261 253 248 244 241 240 241 241 242 242
323 323 325 327 326 328 326 319 320 321 320 318 318 320 318 312 315 316 317 317 316 315 314 311 308 306 304 305 301 293 285 280 276 269 262 257 251 247 244 242 243 243 242
328 329 330 332 330 332 323 327 329 327 324 322 320 320 320 319 318 318 318 316 316 315 315 315 312 311 311 311 309 305 302 298 294 288 277 269 261 254 251 249 248 250 247
340 338 339 339 339 337 335 333 332 329 326 325 324 323 322 321 321 321 321 319 318 316 315 316 316 319 323 322 319 320 324 326 321 310 299 288 278 270 265 260 257 254 253
354 353 348 346 342 339 335 333 331 329 327 326 325 323 323 322 321 319 319 318 317 316 316 317 315 319 322 325 328 331 338 338 331 321 307 295 285 277 273 268 262 262 259
4 358 351 346 342 339 335 333 332 331 329 328 326 325 324 323 322 322 322 321 320 318 318 318 319 321 321 324 329 336 335 328 322 316 308 296 289 282 278 272 271 266 265
Height
1540 1542 1544 1546 1548 1549 1550 1552 1553 1554 1554 1555 1556 1557 1558 1558 1558 1559 1560 1560 1560 1560 1560 1559 1559 1559 1560 1560 1559 1559 1559 1558 1557 1556 1556 1555 1552 1551 1551 1550 1549 1548 1548
1536 1538 1540 1543 1544 1545 1547 1548 1549 1550 1551 1552 1553 1554 1555 1555 1556 1556 1556 1557 1557 1557 1557 1556 1556 1556 1555 1555 1555 1555 1555 1554 1553 1552 1551 1550 1549 1547 1545 1544 1544 1544 1543
1533 1534 1536 1538 1540 1541 1543 1544 1545 1546 1548 1549 1549 1550 1551 1552 1552 1552 1553 1553 1553 1553 1553 1552 1552 1552 1551 1551 1550 1551 1551 1550 1549 1548 1546 1545 1544 1543 1541 1540 1539 1537 1537
1529 1531 1532 1534 1536 1537 1539 1540 1541 1542 1544 1544 1545 1546 1547 1547 1548 1548 1548 1548 1548 1548 1548 1547 1547 1547 1546 1546 1545 1545 1545 1544 1544 1543 1541 1540 1539 1538 1537 1535 1535 1533 1532
1525 1526 1528 1530 1531 1533 1534 1536 1537 1538 1539 1540 1541 1541 1542 1542 1543 1543 1543 1543 1543 1543 1542 1542 1541 1541 1540 1540 1540 1540 1540 1539 1538 1538 1536 1535 1534 1533 1532 1531 1530 1529 1527
1520 1522 1524 1525 1527 1528 1529 1531 1532 1533 1534 1535 1536 1536 1536 1537 1537 1537 1538 1538 1537 1537 1536 1535 1535 1533 1533 1533 1533 1532 1533 1532 1532 1531 1530 1529 1528 1528 1527 1526 1525 1524 1522
1516 1518 1520 1521 1522 1523 1525 1526 1527 1528 1529 1529 1530 1530 1530 1530 1530 1530 1530 1530 1530 1529 1528 1527 1527 1527 1526 1525 1524 1524 1523 1523 1523 1523 1522 1521 1521 1521 1520 1519 1518 1517 1516
1513 1514 1516 1517 1518 1519 1520 1520 1521 1522 1522 1523 1523 1523 1522 1523 1523 1522 1522 1521 1520 1519 1519 1518 1518 1518 1518 1517 1516 1515 1514 1513 1513 1513 1511 1512 1513 1513 1512 1512 1511 1510 1508
1511 1512 1513 1514 1514 1515 1515 1515 1516 1516 1516 1516 1516 1515 1514 1514 1514 1514 1513 1512 1510 1509 1509 1509 1508 1508 1507 1508 1508 1506 1506 1505 1504 1503 1503 1503 1503 1503 1504 1504 1504 1504 1502
1510 1511 1511 1511 1511 1511 1511 1511 1511 1510 1510 1509 1509 1508 1507 1506 1506 1505 1504 1503 1501 1500 1499 1498 1498 1497 1497 1497 1497 1496 1495 1495 1496 1495 1493 1492 1492 1493 1493 1494 1494 1495 1493
1510 1510 1511 1510 1510 1509 1507 1507 1506 1506 1505 1504 1503 1502 1500 1499 1498 1497 1496 1494 1493 1491 1490 1489 1489 1488 1487 1487 1486 1485 1485 1486 1486 1485 1485 1484 1483 1482 1482 1482 1482 1483 1484
1510 1510 1509 1509 1508 1507 1505 1504 1503 1502 1501 1500 1498 1497 1496 1494 1493 1490 1489 1487 1485 1482 1480 1479 1479 1478 1476 1475 1475 1474 1475 1475 1475 1474 1474 1474 1474 1473 1473 1473 1472 1472 1472
1510 1509 1509 1508 1507 1505 1504 1502 1501 1500 1499 1498 1496 1494 1492 1490 1488 1485 1483 1480 1477 1475 1472 1470 1468 1467 1465 1464 1463 1462 1463 1462 1462 1462 1461 1462 1463 1463 1464 1464 1463 1463 1462
1510 1509 1508 1507 1506 1504 1502 1502 1500 1498 1496 1495 1492 1490 1488 1485 1484 1481 1477 1474 1471 1468 1465 1461 1458 1456 1454 1452 1451 1450 1449 1449 1449 1449 1449 1450 1452 1452 1453 1453 1454 1453 1453
1510 1509 1508 1507 1505 1502 1501 1499 1497 1495 1493 1490 1488 1485 1483 1480 1477 1473 1470 1466 1463 1460 1455 1451 1449 1447 1444 1442 1440 1439 1437 1437 1436 1436 1437 1438 1439 1440 1441 1442 1443 1444 1444
1509 1508 1507 1505 1503 1501 1499 1496 1493 1491 1488 1484 1481 1479 1475 1473 1469 1465 1462 1458 1455 1451 1447 1443 1440 1438 1435 1432 1430 1428 1427 1425 1425 1425 1426 1426 1427 1429 1430 1431 1432 1433 1433
1507 1506 1504 1502 1500 1498 1495 1493 1490 1487 1483 1480 1476 1472 1469 1466 1462 1458 1454 1450 1446 1443 1439 1435 1432 1429 1426 1423 1420 1418 1416 1415 1414 1415 1415 1415 1417 1418 1419 1420 1421 1422 1423
1506 1504 1502 1500 1497 1495 1492 1489 1485 1482 1479 1475 1472 1468 1463 1459 1455 1451 1447 1442 1438 1436 1432 1428 1424 1420 1417 1414 1411 1408 1406 1405 1404 1404 1404 1405 1406 1408 1409 1410 1411 1412 1413
1503 1501 1498 1496 1494 1491 1488 1485 1481 1478 1474 1470 1466 1463 1458 1454 1449 1446 1441 1438 1433 1429 1425 1421 1417 1413 1409 1405 1402 1399 1397 1396 1395 1395 1395 1396 1397 1398 1399 1400 1402 1403 1404
1500 1497 1494 1492 1490 1487 1483 1480 1476 1473 1469 1465 1461 1457 1453 1449 1445 1441 1437 1433 1428 1423 1419 1414 1410 1406 1401 1397 1394 1391 1389 1388 1387 1387 1387 1388 1388 1389 1390 1392 1393 1394 1395
1497 1494 1490 1488 1485 1482 1479 1475 1472 1468 1464 1460 1457 1453 1448 1444 1440 1435 1431 1427 1422 1417 1413 1408 1403 1398 1394 1391 1387 1384 1383 1381 1380 1380 1380 1380 1381 1381 1382 1384 1384 1385 1386
1493 1490 1487 1484 1481 1478 1474 1471 1467 1463 1459 1455 1451 1448 1443 1439 1435 1431 1426 1422 1417 1412 1407 1402 1397 1393 1389 1385 1381 1379 1377 1375 1374 1373 1373 1373 1374 1374 1375 1376 1377 1378 1379
1489 1486 1483 1480 1477 1473 1470 1467 1463 1459 1455 1451 1447 1443 1439 1435 1430 1426 1422 1417 1412 1407 1402 1397 1392 1388 1384 1380 1377 1374 1372 1371 1370 1369 1368 1368 1368 1369 1369 1370 1370 1371 1372
1485 1482 1479 1476 1473 1470 1466 1463 1459 1455 1451 1447 1443 1439 1435 1431 1426 1421 1417 1412 1407 1402 1398 1393 1388 1384 1380 1376 1373 1371 1369 1367 1366 1365 1364 1364 1363 1363 1363 1363 1363 1364 1365
1482 1478 1476 1472 1469 1466 1463 1460 1456 1452 1448 1444 1440 1435 1431 1426 1422 1417 1412 1407 1403 1398 1393 1389 1384 1380 1377 1374 1371 1368 1366 1364 1363 1361 1360 1359 1359 1358 1358 1358 1358 1358 1358
1479 1476 1473 1470 1467 1464 1461 1457 1453 1449 1445 1441 1437 1432 1427 1423 1418 1413 1408 1404 1399 1394 1390 1385 1381 1378 1374 1371 1368 1365 1363 1361 1359 1358 1356 1355 1354 1353 1353 1352 1352 1352 1352